TimeCDT,TemperatureF,Dew PointF,Humidity,Sea Level PressureIn,VisibilityMPH,Wind Direction,Wind SpeedMPH,Gust SpeedMPH,PrecipitationIn,Events,Conditions,WindDirDegrees,DateUTC
12:52 AM,28.0,16.0,61,30.17,10.0,WNW,11.5,-,N/A,,Overcast,300,2013-03-17 05:52:00
1:52 AM,26.1,14.0,60,30.17,10.0,NW,9.2,-,N/A,,Scattered Clouds,320,2013-03-17 06:52:00
2:52 AM,25.0,12.9,60,30.18,10.0,NNW,9.2,-,N/A,,Partly Cloudy,330,2013-03-17 07:52:00
3:52 AM,24.1,12.9,62,30.18,10.0,NNW,8.1,-,N/A,,Scattered Clouds,340,2013-03-17 08:52:00
4:52 AM,21.9,12.0,66,30.18,10.0,North,16.1,21.9,N/A,,Scattered Clouds,360,2013-03-17 09:52:00
5:52 AM,23.0,14.0,68,30.20,10.0,North,13.8,-,N/A,,Scattered Clouds,360,2013-03-17 10:52:00
6:39 AM,23.0,15.8,74,30.18,10.0,North,9.2,-,N/A,,Mostly Cloudy,360,2013-03-17 11:39:00
6:52 AM,24.1,15.1,69,30.22,10.0,NE,10.4,16.1,N/A,,Mostly Cloudy,40,2013-03-17 11:52:00
7:15 AM,24.8,15.8,69,30.20,10.0,NNE,12.7,-,N/A,,Mostly Cloudy,30,2013-03-17 12:15:00
7:52 AM,26.1,16.0,66,30.25,10.0,ENE,11.5,19.6,N/A,,Mostly Cloudy,60,2013-03-17 12:52:00
8:52 AM,26.1,16.0,66,30.26,10.0,NE,13.8,20.7,N/A,,Overcast,50,2013-03-17 13:52:00
9:52 AM,28.0,16.0,61,30.27,10.0,ENE,13.8,-,N/A,,Mostly Cloudy,60,2013-03-17 14:52:00
10:52 AM,26.6,17.6,69,30.24,10.0,East,17.3,-,N/A,,Overcast,80,2013-03-17 15:52:00
11:52 AM,28.0,17.1,63,30.28,10.0,ENE,11.5,-,N/A,,Mostly Cloudy,60,2013-03-17 16:52:00
12:52 PM,28.0,17.1,63,30.27,10.0,ENE,13.8,-,N/A,,Mostly Cloudy,60,2013-03-17 17:52:00
1:52 PM,28.0,17.1,63,30.25,10.0,East,11.5,-,N/A,,Mostly Cloudy,90,2013-03-17 18:52:00
2:24 PM,26.6,17.6,69,30.19,10.0,East,10.4,-,N/A,,Mostly Cloudy,100,2013-03-17 19:24:00
2:52 PM,28.0,18.0,66,30.21,10.0,ENE,10.4,18.4,N/A,,Mostly Cloudy,70,2013-03-17 19:52:00
3:52 PM,28.0,18.0,66,30.20,10.0,East,15.0,-,N/A,,Mostly Cloudy,80,2013-03-17 20:52:00
4:52 PM,28.0,18.0,66,30.19,10.0,East,12.7,-,N/A,,Mostly Cloudy,90,2013-03-17 21:52:00
5:08 PM,28.4,17.6,64,30.16,10.0,East,9.2,-,N/A,,Mostly Cloudy,100,2013-03-17 22:08:00
5:52 PM,28.9,18.0,64,30.17,10.0,ENE,11.5,-,N/A,,Mostly Cloudy,70,2013-03-17 22:52:00
6:52 PM,28.0,18.0,66,30.17,10.0,East,11.5,-,N/A,,Mostly Cloudy,100,2013-03-17 23:52:00
7:52 PM,28.9,19.9,69,30.15,10.0,East,16.1,-,N/A,,Scattered Clouds,80,2013-03-18 00:52:00
8:52 PM,28.9,21.9,75,30.14,10.0,East,12.7,-,N/A,,Scattered Clouds,80,2013-03-18 01:52:00
9:52 PM,30.0,21.0,69,30.11,10.0,East,15.0,-,N/A,,Scattered Clouds,100,2013-03-18 02:52:00
10:52 PM,30.0,21.9,72,30.09,10.0,ESE,18.4,-,N/A,,Mostly Cloudy,110,2013-03-18 03:52:00
11:52 PM,30.0,23.0,75,30.06,10.0,ESE,18.4,-,N/A,,Mostly Cloudy,120,2013-03-18 04:52:00